Flag for U.S.A. Weather past 2 weeks in Paterson, New Jersey, U.S.A.

Now
21 °F

Light snow. Overcast.


Feels Like: 11 °F
Forecast: 19 / 28 °F
Wind: 9 mph from North

Location: Essex County Airport

Current Time: Jan 27, 2015 at 7:57:15 AM

Latest Report: Jan 27, 2015 at 6:53 AM


Visibility: 5 mi

Pressure: 29.72 "Hg

Humidity: 71%

Dew point: 13 °F

Location of PatersonLocation

Historic Weather in Paterson — Graph

°F

Paterson temperature yesterday

Maximum temperature yesterday: 27 °F (at 12:53 AM)
Minimum temperature yesterday: 19 °F (at 4:53 AM)
Average temperature yesterday: 22 °F

Past Weeks' High & Low Weather Summary

 TemperatureHumidityPressure
High41 °F (Jan 16, 12:53 PM)100% (Jan 18, 5:53 PM)30.67 "Hg (Jan 18, 5:53 PM)
Low11 °F (Jan 14, 1:53 AM)22% (Jan 17, 3:53 PM)29.30 "Hg (Jan 24, 3:00 PM)
Average29 °F63%30.07 "Hg
* Reported Jan 12 6:53 AM — Jan 27 6:53 AM, Paterson, Weather by CustomWeather, © 2014

Note: Actual official high and low records may vary slightly from our data, if they occured in-between our weather recording intervals... More about our weather records

Advertising

Paterson weather history for previous 24 hours

 ConditionsComfort  
Time TempWeatherWind HumidityBarometerVisibility
6:53 AM
Jan 27
21 °FLight snow. Overcast.9 mph71%29.72 "Hg5 mi
5:53 AM20 °FLight snow. Overcast.6 mph78%29.71 "Hg3 mi
4:53 AM20 °FLight snow. Overcast.10 mph78%29.71 "Hg1 mi
3:53 AM20 °FLight snow. Ice fog.10 mph89%29.72 "Hg1 mi
2:53 AM21 °FLight snow. Ice fog.12 mph85%29.72 "Hg1 mi
1:53 AM22 °FLight snow. Ice fog.12 mph85%29.73 "Hg1 mi
12:53 AM22 °FLight snow. Mostly cloudy.7 mph82%29.73 "Hg1 mi
11:53 PM
Jan 26
22 °FLight snow. Ice fog.12 mph85%29.74 "Hg2 mi
11:02 PM22 °FLight snow. Ice fog.8 mph85%29.74 "Hg2 mi
10:53 PM22 °FLight snow. Mostly cloudy.7 mph82%29.78 "Hg2 mi
9:53 PM23 °FOvercast.8 mph74%29.81 "Hg10 mi
8:53 PM25 °FOvercast.9 mph75%29.83 "Hg10 mi
7:53 PM26 °FOvercast.15 mph74%29.85 "Hg10 mi
6:53 PM25 °FLight snow. Overcast.16 mph78%29.87 "Hg7 mi
5:53 PM24 °FLight snow. Overcast.12 mph81%29.88 "Hg6 mi
5:02 PM23 °FLight snow. Mostly cloudy.10 mph81%29.85 "Hg6 mi
3:53 PM22 °FLight snow. Ice fog.9 mph85%29.88 "Hg1 mi
2:53 PM21 °FLight snow. Ice fog.8 mph88%29.90 "Hg1 mi
2:02 PM20 °FLight snow. Ice fog.9 mph85%29.90 "Hg1 mi
1:53 PM21 °FLight snow. More clouds than sun.7 mph78%29.92 "Hg1 mi
12:53 PM21 °FLight snow. More clouds than sun.12 mph74%29.93 "Hg9 mi
11:53 AM21 °FOvercast.13 mph74%29.97 "Hg10 mi
10:58 AM20 °FLight snow. Cloudy.15 mph82%29.99 "Hg2 mi
9:53 AM20 °FLight snow. Mostly cloudy.13 mph78%30.03 "Hg2 mi
8:53 AM19 °FLight snow. Ice fog.8 mph85%30.04 "Hg1 mi
8:01 AM19 °FLight snow. Overcast.10 mph74%30.01 "Hg2 mi
Weather by CustomWeather, © 2014

See weather overviewHow to use our weather pages